Terminal Aerodrome Forecast
Issued by NWS

Home | Current Version | Previous Version | Text Only | Print | Product List | Glossary On
Versions: 1 2 3 4 5 6 7 8 9 10 11 12 13 14 15 16 17 18 19 20 21 22 23 24 25 26 27 28
000
FTPA31 PHFO 190900 AAA
TAFPPG
TAF AMD
NSTU 190920Z 1909/2006 11015KT P6SM VCTS SCT015CB SCT040 BKN060
      TEMPO 1909/1912 3SM TSRA BKN015CB BKN060=

USA.gov is the U.S. government's official web portal to all federal, state and local government web resources and services.